Location: Herm
(49.4830°N, 2.4500°W)
Time: 20:09:12
(UTC+00:00)

NOAA 15 - Pass Details

Date: 28 October 2021
Orbit: 797 x 812 km, 98.7° (Epoch: 27 November)

Event Time Altitude Azimuth Distance (km) Brightness Sun altitude
Rises 20:43:08 0° 190° (S) 3,318 7.8 -27.8°
Reaches altitude 10° 20:45:41 10° 200° (SSW) 2,393 7.1 -28.2°
Maximum altitude 20:50:27 34° 264° (W) 1,324 6.2 -29.0°
Drops below altitude 10° 20:55:17 10° 329° (NNW) 2,412 7.6 -29.8°
Sets 20:57:51 0° 339° (NNW) 3,349 8.3 -30.2°
